loading
|

OBJECT F, 57429

Orbit data source: Space-Track

OBJECT F, 57429 is a satellite owned by Yinhe (CN) in SSO that was launched on Sun, 23 Jul 2023 UTC via a CHANG ZHENG 2D launch vehicle from the Taiyaun Space Center, China (TSC). Unknown objects in Earth's orbit typically refer to objects detected orbiting the Earth but have not yet been identified or cataloged. These objects could be anything from previously untracked satellites, spent rocket stages, debris from satellite collisions, or even natural meteoroids temporarily captured by Earth's gravity.

Loading next visibility...
Loading greatness...
OBJECT F details
Identifier
57429, 2023-104F
Orbit
SSO
Last TLE update10 hours ago
Origin
Flag of CNYinhe (CN / PRC)
ManufacturerYinhe
MissionSpacecraft
Bus & MotorUnknown bus, Unknown motor
Mass~300 kg wet, ~300 kg dry
Launch date (UTC)
2023-07-23 (1 year ago)
Launch vehicle
CHANG ZHENG 2D
Launch site
Taiyaun Space Center, China (TSC)
Object typeUnknown
Shape & HBRUnknown
Radar Cross SectionMedium (>0.1 m² and <1 m²)

Expand to show TLE details & history

TLE from 10 hours ago
0 OBJECT F
1 57429U 23104F   24279.54924639  .00059799  00000-0  21018-2 0  9996
2 57429  97.3418 344.7904 0030174 112.5689 247.8749 15.28715273 67150
Epoch: 2024-10-05T13:10Z
Definitive object data (Epoch: 2024-10-05T13:10:54.888Z)
Latitude0.00003°
Longitude132.35773°
Altitude490.605 km
Speed7.615 km/s
True Right ascension22h 59m 09s
True Declination0° 00' 00"
Sunlit
Object was in full shadow at TLE epoch
Predictive object data (real-time)
Latitude50.32096°
Longitude123.86922°
Altitude477.331 km
Speed7.638 km/s
Apparent Right ascension01h 51m 30s
Apparent Declination10° 45' 57"
Sunlit
Object is in full shadow
Predictive observer data (real-time)
Local Sidereal Time16:49:38
Azimuth49.299° ENE
Elevation-24.662°
Doppler factor1
Orbital elements
Apogee497.287 km
Perigee455.92 km
Semi-major axis6,854.74 km
Eccentricity0.0030174
Inclination97.3418°
RAAN344.7904°
Arg. of periapsis112.5689°
True anomaly247.55505°
Mean anomaly247.8749°
Eccentric anomaly247.71493°
Mean motion3.82434 °/min
BSTAR0.0021018
Period94.13 mins
No data available
No data available

OBJECT F Visibility forecast

Observer location: 39.9160978°, -105.1181434

OBJECT F is not visible in the next 10 days
Span
Click to sort rows by Start time (UTC) header in descending order
Start Az.
Max El. time (UTC)
Max El. Az.
Max El.
End time (UTC)
End Az.